EW2118 Weather Reports


time (UTC)temp
F
wind
direction
speed
knots
gust
knots
rain 1hr
in
rain 24hr
in
rain mn
in
humidity
%
barometer
mb
20260906211404 90 124 8.7 23.5 0.00 0.00 0.00 33 1013.7
20260906211204 90 122 7.0 23.5 0.00 0.00 0.00 32 1013.7
20260906211004 90 123 8.7 23.5 0.00 0.00 0.00 32 1013.8
20260906210825 90 123 13.0 23.5 0.00 0.00 0.00 33 1013.9
20260906210604 90 123 10.4 20.9 0.00 0.00 0.00 33 1013.7
20260906210425 90 123 9.6 20.9 0.00 0.00 0.00 33 1013.8
20260906210204 90 123 12.2 20.9 0.00 0.00 0.00 33 1013.9
20260906210004 90 120 9.6 20.9 0.00 0.00 0.00 33 1013.9
20260906205804 90 122 13.0 20.9 0.00 0.00 0.00 33 1013.9
20260906205604 90 120 13.9 20.9 0.00 0.00 0.00 34 1013.8
20260906205404 90 123 8.7 18.2 0.00 0.00 0.00 34 1013.9
20260906205204 90 130 8.7 18.2 0.00 0.00 0.00 33 1013.9
20260906205004 90 132 8.7 18.2 0.00 0.00 0.00 34 1014.0
20260906204804 89 135 13.9 18.2 0.00 0.00 0.00 34 1014.0
20260906204604 89 143 9.6 18.2 0.00 0.00 0.00 34 1013.9
20260906204425 90 145 12.2 20.9 0.00 0.00 0.00 34 1013.9
20260906204204 89 145 11.3 20.9 0.00 0.00 0.00 34 1014.0
20260906204025 89 146 10.4 20.9 0.00 0.00 0.00 34 1014.0
20260906203804 89 143 11.3 20.9 0.00 0.00 0.00 34 1013.9
20260906203604 89 136 15.6 20.9 0.00 0.00 0.00 34 1014.0
20260906203404 89 132 13.0 22.6 0.00 0.00 0.00 34 1014.0
20260906203204 89 134 12.2 22.6 0.00 0.00 0.00 34 1014.1
20260906203004 89 135 8.7 22.6 0.00 0.00 0.00 34 1014.1
20260906202804 89 134 10.4 23.5 0.00 0.00 0.00 34 1014.0
20260906202604 89 134 13.9 23.5 0.00 0.00 0.00 34 1014.1
20260906202425 89 132 13.9 23.5 0.00 0.00 0.00 34 1014.0
20260906202204 89 127 14.8 23.5 0.00 0.00 0.00 34 1014.1
20260906202025 89 121 13.9 23.5 0.00 0.00 0.00 34 1014.1
20260906201804 89 122 9.6 21.7 0.00 0.00 0.00 34 1014.0
20260906201604 89 122 8.7 21.7 0.00 0.00 0.00 34 1014.2
20260906201404 89 120 13.0 21.7 0.00 0.00 0.00 34 1014.1
20260906201204 89 116 10.4 21.7 0.00 0.00 0.00 34 1014.2
20260906201025 89 117 12.2 20.9 0.00 0.00 0.00 34 1014.1
20260906200804 89 117 10.4 20.9 0.00 0.00 0.00 34 1014.1
20260906200604 89 123 9.6 20.9 0.00 0.00 0.00 34 1014.1
20260906200404 89 121 13.0 20.9 0.00 0.00 0.00 34 1014.1
20260906200225 89 117 8.7 20.9 0.00 0.00 0.00 34 1014.1
20260906200004 90 113 10.4 20.9 0.00 0.00 0.00 34 1014.1
20260906195825 89 112 13.9 20.9 0.00 0.00 0.00 35 1014.2
20260906195604 89 107 12.2 20.0 0.00 0.00 0.00 35 1014.1
20260906195404 89 113 12.2 20.9 0.00 0.00 0.00 34 1014.1
20260906195225 89 118 12.2 27.8 0.00 0.00 0.00 35 1014.1
20260906195004 89 124 11.3 27.8 0.00 0.00 0.00 35 1014.2
20260906194804 89 123 11.3 27.8 0.00 0.00 0.00 34 1014.3
20260906194604 90 123 13.0 27.8 0.00 0.00 0.00 34 1014.3
20260906194404 89 123 13.0 27.8 0.00 0.00 0.00 35 1014.1
20260906194204 90 126 13.9 20.9 0.00 0.00 0.00 34 1014.2
20260906194004 90 124 12.2 20.9 0.00 0.00 0.00 34 1014.1
20260906193804 90 123 8.7 20.9 0.00 0.00 0.00 34 1014.2
20260906193604 89 124 8.7 21.7 0.00 0.00 0.00 34 1014.2
20260906193404 89 121 14.8 21.7 0.00 0.00 0.00 34 1014.2
20260906193204 89 117 10.4 21.7 0.00 0.00 0.00 34 1014.1
20260906193004 89 126 12.2 21.7 0.00 0.00 0.00 34 1014.2
20260906192825 89 132 12.2 21.7 0.00 0.00 0.00 34 1014.2
20260906192604 89 137 9.6 21.7 0.00 0.00 0.00 34 1014.2
20260906192404 89 139 10.4 21.7 0.00 0.00 0.00 34 1014.1
20260906192204 89 141 13.9 21.7 0.00 0.00 0.00 34 1014.3
20260906192004 89 137 13.0 21.7 0.00 0.00 0.00 34 1014.2
20260906191804 89 136 13.0 20.9 0.00 0.00 0.00 34 1014.2
20260906191604 89 134 11.3 20.9 0.00 0.00 0.00 35 1014.2
20260906191425 89 137 12.2 20.9 0.00 0.00 0.00 34 1014.4
20260906191204 89 135 13.0 20.9 0.00 0.00 0.00 34 1014.4
20260906191025 89 134 13.9 20.9 0.00 0.00 0.00 34 1014.4
20260906190804 89 132 9.6 20.9 0.00 0.00 0.00 34 1014.4
20260906190625 89 132 13.9 20.9 0.00 0.00 0.00 34 1014.4
20260906190404 90 124 9.6 20.9 0.00 0.00 0.00 34 1014.3
20260906190204 90 127 11.3 20.9 0.00 0.00 0.00 34 1014.3
20260906190004 90 132 9.6 20.9 0.00 0.00 0.00 34 1014.5
20260906185804 90 134 10.4 20.9 0.00 0.00 0.00 34 1014.6
20260906185604 89 136 10.4 20.0 0.00 0.00 0.00 34 1014.5
20260906185404 89 139 13.0 20.0 0.00 0.00 0.00 33 1014.6
20260906185204 90 141 12.2 20.0 0.00 0.00 0.00 34 1014.6
20260906185004 90 140 12.2 20.0 0.00 0.00 0.00 34 1014.5
20260906184804 90 135 13.0 20.0 0.00 0.00 0.00 33 1014.6
20260906184604 90 136 13.0 20.0 0.00 0.00 0.00 33 1014.6
20260906184404 90 139 13.0 20.0 0.00 0.00 0.00 34 1014.7
20260906184204 90 139 9.6 20.0 0.00 0.00 0.00 33 1014.7
20260906184004 90 136 10.4 20.0 0.00 0.00 0.00 33 1014.6
20260906183804 90 141 12.2 20.0 0.00 0.00 0.00 33 1014.8
20260906183604 90 141 12.2 20.0 0.00 0.00 0.00 33 1014.7
20260906183404 90 139 7.8 20.0 0.00 0.00 0.00 34 1014.8
20260906183204 89 141 9.6 20.0 0.00 0.00 0.00 33 1014.8
20260906183004 90 143 11.3 20.0 0.00 0.00 0.00 34 1014.7
20260906182804 90 140 13.0 20.0 0.00 0.00 0.00 33 1014.8
20260906182604 90 140 11.3 20.0 0.00 0.00 0.00 33 1014.8
20260906182404 90 142 12.2 20.0 0.00 0.00 0.00 33 1014.8
20260906182204 90 141 11.3 20.0 0.00 0.00 0.00 33 1014.8
20260906182004 90 139 11.3 20.0 0.00 0.00 0.00 32 1014.7
20260906181804 90 140 10.4 20.0 0.00 0.00 0.00 33 1014.8
20260906181604 90 138 7.8 20.0 0.00 0.00 0.00 33 1014.9
20260906181404 90 137 10.4 20.0 0.00 0.00 0.00 33 1014.8
20260906181204 90 135 12.2 20.0 0.00 0.00 0.00 33 1015.0
20260906181004 90 136 9.6 19.1 0.00 0.00 0.00 32 1015.0
20260906180804 90 134 9.6 17.4 0.00 0.00 0.00 32 1015.0
20260906180604 90 137 10.4 17.4 0.00 0.00 0.00 33 1015.0
20260906180404 90 139 9.6 17.4 0.00 0.00 0.00 33 1015.1
20260906180204 90 137 11.3 17.4 0.00 0.00 0.00 32 1015.0
20260906180004 90 141 6.1 17.4 0.00 0.00 0.00 33 1015.0
20260906175804 90 145 9.6 17.4 0.00 0.00 0.00 33 1015.1
20260906175604 90 147 11.3 19.1 0.00 0.00 0.00 33 1015.1
20260906175404 90 148 10.4 19.1 0.00 0.00 0.00 32 1015.1
20260906175204 90 150 9.6 19.1 0.00 0.00 0.00 32 1015.0
20260906175004 90 153 7.0 19.1 0.00 0.00 0.00 34 1015.1
20260906174825 89 156 10.4 19.1 0.00 0.00 0.00 33 1015.1
20260906174604 89 158 7.0 17.4 0.00 0.00 0.00 33 1015.1
20260906174425 89 161 9.6 17.4 0.00 0.00 0.00 33 1015.2
20260906174204 89 164 8.7 17.4 0.00 0.00 0.00 33 1015.1
20260906174025 89 166 7.8 17.4 0.00 0.00 0.00 34 1015.2
20260906173804 89 163 9.6 17.4 0.00 0.00 0.00 34 1015.3
20260906173604 89 161 7.8 17.4 0.00 0.00 0.00 34 1015.3
20260906173404 89 162 9.6 18.2 0.00 0.00 0.00 34 1015.3
20260906173225 89 159 10.4 18.2 0.00 0.00 0.00 34 1015.3
20260906173025 89 158 10.4 19.1 0.00 0.00 0.00 34 1015.5
20260906172804 88 153 6.1 19.1 0.00 0.00 0.00 34 1015.5
20260906172604 88 149 10.4 20.0 0.00 0.00 0.00 34 1015.5
20260906172404 88 143 8.7 21.7 0.00 0.00 0.00 34 1015.5
20260906172204 88 141 10.4 21.7 0.00 0.00 0.00 34 1015.6
20260906172004 88 139 11.3 21.7 0.00 0.00 0.00 33 1015.6
20260906171804 88 139 11.3 21.7 0.00 0.00 0.00 34 1015.7
20260906171604 88 141 13.9 21.7 0.00 0.00 0.00 34 1015.7
20260906171404 88 141 10.4 20.9 0.00 0.00 0.00 34 1015.7
20260906171204 88 147 12.2 20.9 0.00 0.00 0.00 34 1015.7
20260906171025 89 147 13.0 19.1 0.00 0.00 0.00 33 1015.7
20260906170804 89 155 7.8 15.6 0.00 0.00 0.00 33 1015.6
20260906170604 89 160 7.8 15.6 0.00 0.00 0.00 33 1015.8
20260906170404 89 165 9.6 15.6 0.00 0.00 0.00 34 1015.9
20260906170204 89 165 10.4 15.6 0.00 0.00 0.00 33 1015.8
20260906170004 89 170 6.1 14.8 0.00 0.00 0.00 34 1015.8
20260906165804 89 166 7.8 19.1 0.00 0.00 0.00 34 1015.8
20260906165604 89 165 6.1 19.1 0.00 0.00 0.00 34 1015.8
20260906165404 89 165 7.0 19.1 0.00 0.00 0.00 34 1015.9
20260906165204 88 162 5.2 19.1 0.00 0.00 0.00 34 1015.9
20260906165004 88 165 7.0 19.1 0.00 0.00 0.00 34 1015.9
20260906164804 88 165 7.0 15.6 0.00 0.00 0.00 34 1015.9
20260906164604 88 162 7.0 17.4 0.00 0.00 0.00 34 1015.9
20260906164404 88 162 7.0 17.4 0.00 0.00 0.00 34 1016.0
20260906164204 88 163 6.1 17.4 0.00 0.00 0.00 34 1016.0
20260906164004 88 163 7.0 17.4 0.00 0.00 0.00 34 1016.0
20260906163804 88 162 9.6 17.4 0.00 0.00 0.00 34 1016.1
20260906163604 88 163 9.6 17.4 0.00 0.00 0.00 34 1016.0
20260906163404 88 163 7.8 17.4 0.00 0.00 0.00 35 1016.1
20260906163225 88 163 6.1 16.5 0.00 0.00 0.00 35 1016.1
20260906163004 87 163 9.6 16.5 0.00 0.00 0.00 34 1016.1
20260906162804 87 162 9.6 16.5 0.00 0.00 0.00 35 1016.2
20260906162604 88 159 8.7 16.5 0.00 0.00 0.00 35 1016.1
20260906162404 87 160 7.8 16.5 0.00 0.00 0.00 35 1016.2
20260906162204 87 163 3.5 16.5 0.00 0.00 0.00 35 1016.2
20260906162004 87 164 7.8 16.5 0.00 0.00 0.00 35 1016.0
20260906161804 87 169 7.8 16.5 0.00 0.00 0.00 34 1016.1
20260906161604 87 175 7.0 16.5 0.00 0.00 0.00 36 1016.0
20260906161404 87 176 4.3 14.8 0.00 0.00 0.00 36 1016.1
20260906161204 86 173 6.1 14.8 0.00 0.00 0.00 36 1016.1
20260906161004 86 172 7.8 16.5 0.00 0.00 0.00 36 1016.1
20260906160804 86 173 6.1 16.5 0.00 0.00 0.00 36 1016.1
20260906160604 86 174 7.8 16.5 0.00 0.00 0.00 36 1016.1
20260906160404 86 177 8.7 16.5 0.00 0.00 0.00 36 1016.1
20260906160204 86 186 6.1 16.5 0.00 0.00 0.00 36 1016.1
20260906160025 86 188 3.5 13.9 0.00 0.00 0.00 37 1016.1
20260906155825 86 189 3.5 13.9 0.00 0.00 0.00 36 1016.1
20260906155626 86 191 4.3 13.9 0.00 0.00 0.00 36 1016.0
20260906155404 86 192 4.3 15.6 0.00 0.00 0.00 36 1016.0
20260906155204 85 190 6.1 16.5 0.00 0.00 0.00 36 1016.0
20260906155004 85 189 6.1 16.5 0.00 0.00 0.00 37 1016.0
20260906154804 85 188 4.3 16.5 0.00 0.00 0.00 36 1016.0
20260906154604 85 187 7.0 16.5 0.00 0.00 0.00 36 1016.0
20260906154425 85 189 7.0 16.5 0.00 0.00 0.00 37 1015.9
20260906154204 85 194 7.0 14.8 0.00 0.00 0.00 37 1016.0
20260906154004 85 193 5.2 15.6 0.00 0.00 0.00 37 1016.0
20260906153804 85 191 5.2 17.4 0.00 0.00 0.00 38 1016.0
20260906153604 84 185 4.3 17.4 0.00 0.00 0.00 37 1016.0
20260906153404 84 180 6.1 17.4 0.00 0.00 0.00 37 1016.1
20260906153225 84 178 7.0 17.4 0.00 0.00 0.00 38 1016.1
20260906153004 84 177 7.8 17.4 0.00 0.00 0.00 37 1016.0
20260906152825 84 180 9.6 17.4 0.00 0.00 0.00 37 1016.1
20260906152604 84 185 7.8 15.6 0.00 0.00 0.00 38 1016.1
20260906152404 84 186 5.2 14.8 0.00 0.00 0.00 38 1016.1
20260906152204 84 187 4.3 14.8 0.00 0.00 0.00 38 1016.1
20260906152004 84 186 5.2 14.8 0.00 0.00 0.00 39 1016.1
20260906151804 84 185 4.3 14.8 0.00 0.00 0.00 38 1016.1
20260906151604 84 183 5.2 14.8 0.00 0.00 0.00 39 1016.1
20260906151404 83 184 5.2 14.8 0.00 0.00 0.00 39 1016.1
20260906151204 83 182 5.2 14.8 0.00 0.00 0.00 39 1016.0
20260906151004 83 183 4.3 14.8 0.00 0.00 0.00 40 1016.1
20260906150825 83 181 7.0 14.8 0.00 0.00 0.00 40 1016.1
20260906150604 83 181 4.3 13.9 0.00 0.00 0.00 40 1016.0
20260906150404 83 182 6.1 13.9 0.00 0.00 0.00 40 1016.1
20260906150204 82 182 4.3 13.9 0.00 0.00 0.00 40 1016.2
20260906150025 82 182 7.0 13.9 0.00 0.00 0.00 40 1016.2
20260906145804 82 185 4.3 13.9 0.00 0.00 0.00 41 1016.3
20260906145604 82 187 5.2 13.9 0.00 0.00 0.00 42 1016.3
20260906145404 82 185 6.1 13.9 0.00 0.00 0.00 41 1016.3
20260906145204 82 184 4.3 13.9 0.00 0.00 0.00 42 1016.2
20260906145004 82 181 5.2 13.9 0.00 0.00 0.00 42 1016.2
20260906144804 82 181 4.3 13.0 0.00 0.00 0.00 42 1016.3
20260906144604 82 182 4.3 13.0 0.00 0.00 0.00 42 1016.4
20260906144425 82 182 6.1 13.0 0.00 0.00 0.00 43 1016.3
20260906144204 82 192 5.2 13.0 0.00 0.00 0.00 42 1016.3
20260906144004 82 202 4.3 13.0 0.00 0.00 0.00 42 1016.4
20260906143825 81 206 4.3 13.9 0.00 0.00 0.00 43 1016.4
20260906143625 81 211 3.5 13.9 0.00 0.00 0.00 44 1016.4
20260906143404 81 216 2.6 13.9 0.00 0.00 0.00 45 1016.4
20260906143204 80 215 5.2 13.9 0.00 0.00 0.00 44 1016.3
20260906143004 80 220 6.1 13.9 0.00 0.00 0.00 46 1016.3
20260906142825 80 222 5.2 12.2 0.00 0.00 0.00 45 1016.4
20260906142625 80 224 7.0 12.2 0.00 0.00 0.00 46 1016.3
20260906142404 80 224 6.1 12.2 0.00 0.00 0.00 46 1016.3
20260906142204 80 224 7.8 12.2 0.00 0.00 0.00 46 1016.3
20260906142004 80 221 7.0 13.9 0.00 0.00 0.00 47 1016.3
20260906141804 79 219 7.0 13.9 0.00 0.00 0.00 47 1016.3
20260906141604 79 217 7.8 13.9 0.00 0.00 0.00 47 1016.4
20260906141404 79 215 7.0 13.9 0.00 0.00 0.00 46 1016.3
20260906141204 79 214 7.8 13.9 0.00 0.00 0.00 47 1016.3
20260906141004 79 212 5.2 10.4 0.00 0.00 0.00 47 1016.4
20260906140804 79 212 7.0 10.4 0.00 0.00 0.00 47 1016.4
20260906140604 78 211 6.1 10.4 0.00 0.00 0.00 48 1016.4
20260906140404 78 211 5.2 10.4 0.00 0.00 0.00 48 1016.4
20260906140204 78 211 3.5 10.4 0.00 0.00 0.00 48 1016.4
20260906140004 78 212 3.5 10.4 0.00 0.00 0.00 48 1016.3
20260906135804 78 212 5.2 10.4 0.00 0.00 0.00 49 1016.2
20260906135604 78 212 5.2 10.4 0.00 0.00 0.00 48 1016.3
20260906135404 78 213 6.1 10.4 0.00 0.00 0.00 49 1016.3
20260906135225 77 214 4.3 10.4 0.00 0.00 0.00 49 1016.3
20260906135004 77 215 5.2 10.4 0.00 0.00 0.00 49 1016.3
20260906134825 77 214 5.2 10.4 0.00 0.00 0.00 50 1016.2
20260906134604 77 215 4.3 10.4 0.00 0.00 0.00 50 1016.2
20260906134404 76 214 3.5 8.7 0.00 0.00 0.00 50 1016.1
20260906134204 76 216 4.3 8.7 0.00 0.00 0.00 50 1016.1
20260906134004 76 215 4.3 10.4 0.00 0.00 0.00 51 1016.1
20260906133804 76 215 3.5 10.4 0.00 0.00 0.00 51 1016.1
20260906133604 76 217 4.3 10.4 0.00 0.00 0.00 52 1016.1
20260906133404 75 217 5.2 12.2 0.00 0.00 0.00 53 1016.1
20260906133225 75 215 5.2 12.2 0.00 0.00 0.00 52 1016.1
20260906133004 75 215 5.2 12.2 0.00 0.00 0.00 53 1016.0
20260906132825 75 214 4.3 12.2 0.00 0.00 0.00 53 1016.1
20260906132604 75 212 5.2 12.2 0.00 0.00 0.00 54 1016.1
20260906132404 74 209 4.3 11.3 0.00 0.00 0.00 54 1016.1
20260906132204 74 207 5.2 11.3 0.00 0.00 0.00 54 1016.2
20260906132004 74 200 4.3 7.8 0.00 0.00 0.00 55 1016.2
20260906131804 74 197 3.5 7.8 0.00 0.00 0.00 55 1016.2
20260906131604 73 193 2.6 7.8 0.00 0.00 0.00 55 1016.3
20260906131404 73 192 1.7 7.8 0.00 0.00 0.00 56 1016.3
20260906131204 73 193 2.6 7.8 0.00 0.00 0.00 57 1016.4
20260906131004 72 193 1.7 7.0 0.00 0.00 0.00 57 1016.4
20260906130804 72 192 1.7 7.0 0.00 0.00 0.00 58 1016.4
20260906130604 72 193 2.6 7.0 0.00 0.00 0.00 58 1016.3
20260906130425 72 194 2.6 7.0 0.00 0.00 0.00 58 1016.3
20260906130225 71 191 2.6 7.0 0.00 0.00 0.00 58 1016.2
20260906130004 71 201 1.7 5.2 0.00 0.00 0.00 59 1016.2
20260906125804 71 207 1.7 6.1 0.00 0.00 0.00 60 1016.2
20260906125604 70 210 0.9 8.7 0.00 0.00 0.00 60 1016.1
20260906125404 70 213 1.7 8.7 0.00 0.00 0.00 61 1016.1
20260906125204 70 215 2.6 8.7 0.00 0.00 0.00 61 1016.0
20260906125004 70 215 4.3 10.4 0.00 0.00 0.00 62 1015.9
20260906124804 70 216 4.3 10.4 0.00 0.00 0.00 62 1015.9
20260906124604 69 216 5.2 10.4 0.00 0.00 0.00 62 1015.8
20260906124404 69 215 4.3 10.4 0.00 0.00 0.00 62 1015.8
20260906124204 69 214 5.2 10.4 0.00 0.00 0.00 62 1015.8
20260906124004 69 214 5.2 10.4 0.00 0.00 0.00 62 1015.9
20260906123804 69 214 2.6 6.1 0.00 0.00 0.00 61 1015.9
20260906123604 69 214 3.5 6.1 0.00 0.00 0.00 61 1015.9
20260906123404 69 214 3.5 7.0 0.00 0.00 0.00 62 1015.9
20260906123204 69 215 4.3 7.0 0.00 0.00 0.00 62 1015.9
20260906123004 69 214 4.3 7.0 0.00 0.00 0.00 62 1015.9
20260906122804 69 213 4.3 7.0 0.00 0.00 0.00 62 1015.9
20260906122604 69 213 4.3 7.0 0.00 0.00 0.00 62 1015.9
20260906122404 69 213 3.5 6.1 0.00 0.00 0.00 62 1015.9
20260906122204 69 211 3.5 6.1 0.00 0.00 0.00 62 1015.8
20260906122025 69 211 3.5 6.1 0.00 0.00 0.00 62 1015.9
20260906121804 69 210 3.5 6.1 0.00 0.00 0.00 62 1015.8
20260906121604 69 210 3.5 6.1 0.00 0.00 0.00 62 1015.9
20260906121425 69 210 3.5 6.1 0.00 0.00 0.00 62 1015.8
20260906121204 70 212 3.5 5.2 0.00 0.00 0.00 62 1015.8
20260906121004 70 211 3.5 6.1 0.00 0.00 0.00 62 1015.8
20260906120804 70 213 2.6 7.0 0.00 0.00 0.00 62 1015.8
20260906120604 70 215 1.7 7.0 0.00 0.00 0.00 62 1015.8
20260906120425 70 216 2.6 7.0 0.00 0.00 0.00 62 1015.8
20260906120225 70 217 3.5 7.0 0.00 0.00 0.00 62 1015.8
20260906120004 70 220 4.3 7.8 0.00 0.00 0.00 62 1015.7
20260906115825 70 222 4.3 7.8 0.00 0.00 0.00 62 1015.7
20260906115604 70 222 5.2 7.8 0.00 0.00 0.00 62 1015.7
20260906115404 70 222 4.3 7.8 0.00 0.00 0.00 62 1015.7
20260906115204 70 223 5.2 7.8 0.00 0.00 0.00 62 1015.8
20260906115004 70 221 4.3 5.2 0.00 0.00 0.00 62 1015.6
20260906114804 70 220 3.5 5.2 0.00 0.00 0.00 62 1015.6
20260906114625 70 218 3.5 5.2 0.00 0.00 0.00 62 1015.6
20260906114404 70 219 2.6 6.1 0.00 0.00 0.00 61 1015.6
20260906114225 70 219 2.6 7.0 0.00 0.00 0.00 61 1015.7
20260906114004 70 219 3.5 7.0 0.00 0.00 0.00 62 1015.6
20260906113825 70 220 3.5 7.0 0.00 0.00 0.00 62 1015.6
20260906113604 70 219 4.3 7.0 0.00 0.00 0.00 62 1015.6
20260906113425 70 219 4.3 7.0 0.00 0.00 0.00 62 1015.6
20260906113204 70 219 4.3 7.0 0.00 0.00 0.00 62 1015.6
20260906113004 70 219 4.3 7.0 0.00 0.00 0.00 62 1015.6
20260906112804 70 220 5.2 7.8 0.00 0.00 0.00 62 1015.6
20260906112604 70 221 4.3 7.8 0.00 0.00 0.00 61 1015.6
20260906112404 70 222 5.2 8.7 0.00 0.00 0.00 62 1015.6
20260906112204 70 222 4.3 8.7 0.00 0.00 0.00 62 1015.6
20260906112004 70 223 4.3 10.4 0.00 0.00 0.00 62 1015.6
20260906111825 71 223 4.3 11.3 0.00 0.00 0.00 61 1015.5
20260906111625 71 223 5.2 11.3 0.00 0.00 0.00 62 1015.5
20260906111404 71 222 5.2 11.3 0.00 0.00 0.00 61 1015.5
20260906111204 70 223 7.0 11.3 0.00 0.00 0.00 61 1015.5
20260906111025 70 224 7.0 11.3 0.00 0.00 0.00 62 1015.5
20260906110804 70 222 5.2 11.3 0.00 0.00 0.00 61 1015.5
20260906110604 70 220 6.1 11.3 0.00 0.00 0.00 62 1015.5
20260906110425 70 220 7.0 11.3 0.00 0.00 0.00 62 1015.5
20260906110204 70 219 6.1 11.3 0.00 0.00 0.00 62 1015.6
20260906110004 70 216 6.1 11.3 0.00 0.00 0.00 62 1015.6
20260906105804 70 215 6.1 11.3 0.00 0.00 0.00 62 1015.6
20260906105604 70 213 6.1 10.4 0.00 0.00 0.00 62 1015.6
20260906105404 70 211 5.2 7.8 0.00 0.00 0.00 62 1015.6
20260906105204 70 209 3.5 6.1 0.00 0.00 0.00 63 1015.6
20260906105004 70 210 2.6 6.1 0.00 0.00 0.00 63 1015.7
20260906104804 70 211 2.6 6.1 0.00 0.00 0.00 63 1015.7
20260906104604 70 208 3.5 6.1 0.00 0.00 0.00 63 1015.7
20260906104425 70 207 3.5 6.1 0.00 0.00 0.00 63 1015.6
20260906104204 70 206 2.6 6.1 0.00 0.00 0.00 63 1015.6
20260906104004 70 201 1.7 6.1 0.00 0.00 0.00 63 1015.7
20260906103804 70 201 2.6 6.1 0.00 0.00 0.00 63 1015.7
20260906103604 70 204 2.6 6.1 0.00 0.00 0.00 62 1015.7
20260906103404 70 205 1.7 6.1 0.00 0.00 0.00 62 1015.7
20260906103204 70 202 1.7 6.1 0.00 0.00 0.00 62 1015.7
20260906103004 71 205 1.7 4.3 0.00 0.00 0.00 61 1015.8
20260906102825 71 204 1.7 4.3 0.00 0.00 0.00 61 1015.8
20260906102625 71 204 1.7 4.3 0.00 0.00 0.00 60 1015.7
20260906102425 71 195 0.9 5.2 0.00 0.00 0.00 60 1015.7
20260906102204 72 191 1.7 5.2 0.00 0.00 0.00 60 1015.7
20260906102004 72 183 1.7 5.2 0.00 0.00 0.00 59 1015.6
20260906101804 72 178 1.7 5.2 0.00 0.00 0.00 59 1015.7
20260906101604 72 174 2.6 5.2 0.00 0.00 0.00 59 1015.7
20260906101404 72 177 1.7 5.2 0.00 0.00 0.00 59 1015.7
20260906101204 72 178 3.5 5.2 0.00 0.00 0.00 58 1015.7
20260906101005 72 187 2.6 5.2 0.00 0.00 0.00 58 1015.7
20260906100804 72 198 1.7 3.5 0.00 0.00 0.00 58 1015.8
20260906100604 73 210 0.9 5.2 0.00 0.00 0.00 58 1015.7
20260906100405 73 211 0.9 6.1 0.00 0.00 0.00 58 1015.7
20260906100204 73 216 0.9 7.8 0.00 0.00 0.00 58 1015.8
20260906100004 73 219 1.7 7.8 0.00 0.00 0.00 58 1015.8
20260906095804 73 221 3.5 8.7 0.00 0.00 0.00 58 1015.7
20260906095604 73 222 3.5 8.7 0.00 0.00 0.00 58 1015.6
20260906095404 73 225 4.3 8.7 0.00 0.00 0.00 58 1015.6
20260906095225 73 225 5.2 10.4 0.00 0.00 0.00 57 1015.5
20260906095004 73 226 5.2 10.4 0.00 0.00 0.00 57 1015.5
20260906094804 74 226 6.1 11.3 0.00 0.00 0.00 57 1015.5
20260906094625 74 226 6.1 11.3 0.00 0.00 0.00 57 1015.5
20260906094425 74 226 6.1 11.3 0.00 0.00 0.00 57 1015.5
20260906094204 74 226 6.1 11.3 0.00 0.00 0.00 57 1015.6
20260906094004 74 226 7.0 11.3 0.00 0.00 0.00 57 1015.6
20260906093804 74 227 7.0 11.3 0.00 0.00 0.00 57 1015.7
20260906093604 74 227 5.2 13.0 0.00 0.00 0.00 57 1015.7
20260906093404 74 228 7.0 13.0 0.00 0.00 0.00 57 1015.7
20260906093204 74 230 7.8 13.0 0.00 0.00 0.00 57 1015.5
20260906093004 74 230 7.8 13.0 0.00 0.00 0.00 57 1015.6
20260906092825 74 230 7.8 13.0 0.00 0.00 0.00 58 1015.6
20260906092604 74 231 7.8 13.0 0.00 0.00 0.00 58 1015.6
20260906092404 74 231 8.7 13.0 0.00 0.00 0.00 58 1015.6
20260906092225 74 230 7.8 13.0 0.00 0.00 0.00 58 1015.5
20260906092004 74 229 8.7 13.0 0.00 0.00 0.00 58 1015.5
20260906091804 73 227 7.0 11.3 0.00 0.00 0.00 58 1015.6
20260906091604 73 226 7.8 11.3 0.00 0.00 0.00 58 1015.6
20260906091404 73 226 7.8 11.3 0.00 0.00 0.00 58 1015.5
20260906091225 73 226 7.8 11.3 0.00 0.00 0.00 58 1015.6
20260906091004 73 224 7.0 11.3 0.00 0.00 0.00 58 1015.6
20260906090825 73 225 6.1 11.3 0.00 0.00 0.00 58 1015.5
20260906090604 74 225 6.1 13.0 0.00 0.00 0.00 58 1015.5
20260906090404 74 226 7.8 13.0 0.00 0.00 0.00 58 1015.5
20260906090204 74 228 7.0 13.0 0.00 0.00 0.00 58 1015.4
20260906090004 74 229 7.8 13.9 0.00 0.00 0.00 58 1015.3
20260906085804 74 229 7.8 13.9 0.00 0.00 0.00 58 1015.3
20260906085604 73 229 8.7 14.8 0.00 0.00 0.00 59 1015.2
20260906085404 73 229 7.8 14.8 0.00 0.00 0.00 59 1015.2
20260906085204 73 229 9.6 14.8 0.00 0.00 0.00 59 1015.2
20260906085004 73 228 9.6 14.8 0.00 0.00 0.00 60 1015.1
20260906084804 73 228 9.6 14.8 0.00 0.00 0.00 60 1015.1
20260906084604 73 228 9.6 13.0 0.00 0.00 0.00 60 1015.1
20260906084404 72 226 7.8 12.2 0.00 0.00 0.00 60 1015.2
20260906084204 72 225 7.8 12.2 0.00 0.00 0.00 60 1015.4
20260906084004 72 225 7.8 13.0 0.00 0.00 0.00 60 1015.3
20260906083804 72 225 8.7 13.0 0.00 0.00 0.00 60 1015.3
20260906083604 72 225 7.0 13.0 0.00 0.00 0.00 60 1015.4
20260906083404 72 225 7.0 13.0 0.00 0.00 0.00 60 1015.4
20260906083204 72 226 7.0 13.0 0.00 0.00 0.00 60 1015.4
20260906083025 72 226 7.8 13.0 0.00 0.00 0.00 60 1015.4
20260906082825 73 225 7.8 12.2 0.00 0.00 0.00 60 1015.4
20260906082604 73 224 7.8 11.3 0.00 0.00 0.00 60 1015.4
20260906082404 73 224 7.0 11.3 0.00 0.00 0.00 60 1015.5
20260906082204 73 224 7.0 12.2 0.00 0.00 0.00 60 1015.5
20260906082025 73 223 6.1 12.2 0.00 0.00 0.00 60 1015.5
20260906081804 73 225 7.0 12.2 0.00 0.00 0.00 60 1015.5
20260906081604 73 225 7.8 13.0 0.00 0.00 0.00 60 1015.5
20260906081404 73 223 7.8 13.0 0.00 0.00 0.00 60 1015.4
20260906081204 73 223 7.0 13.9 0.00 0.00 0.00 59 1015.5
20260906081025 74 224 7.8 13.9 0.00 0.00 0.00 59 1015.4
20260906080804 74 222 7.8 18.2 0.00 0.00 0.00 59 1015.4
20260906080604 74 221 7.8 18.2 0.00 0.00 0.00 59 1015.5
20260906080404 74 221 8.7 18.2 0.00 0.00 0.00 58 1015.4
20260906080204 74 219 10.4 18.2 0.00 0.00 0.00 59 1015.4
20260906080025 74 217 8.7 18.2 0.00 0.00 0.00 58 1015.4
20260906075825 74 216 7.0 13.0 0.00 0.00 0.00 58 1015.5
20260906075604 74 214 7.8 13.0 0.00 0.00 0.00 58 1015.5
20260906075425 74 212 7.8 13.0 0.00 0.00 0.00 58 1015.6
20260906075204 74 209 7.0 12.2 0.00 0.00 0.00 58 1015.8
20260906075025 74 208 6.1 11.3 0.00 0.00 0.00 59 1015.8
20260906074804 74 205 5.2 10.4 0.00 0.00 0.00 59 1015.9
20260906074604 74 205 4.3 8.7 0.00 0.00 0.00 59 1015.9
20260906074404 73 201 4.3 7.8 0.00 0.00 0.00 59 1015.9
20260906074204 73 196 4.3 10.4 0.00 0.00 0.00 60 1015.8
20260906074004 73 188 3.5 11.3 0.00 0.00 0.00 60 1015.8
20260906073804 73 181 3.5 11.3 0.00 0.00 0.00 60 1015.9
20260906073604 73 175 3.5 11.3 0.00 0.00 0.00 60 1015.9
20260906073425 73 172 4.3 11.3 0.00 0.00 0.00 60 1015.9
20260906073204 73 169 5.2 11.3 0.00 0.00 0.00 60 1015.9
20260906073004 73 168 6.1 11.3 0.00 0.00 0.00 60 1016.0
20260906072804 73 167 5.2 10.4 0.00 0.00 0.00 60 1016.1
20260906072625 73 168 6.1 10.4 0.00 0.00 0.00 60 1016.1
20260906072404 73 172 6.1 10.4 0.00 0.00 0.00 61 1016.1
20260906072204 73 180 6.1 8.7 0.00 0.00 0.00 61 1016.0
20260906072004 73 195 4.3 8.7 0.00 0.00 0.00 61 1016.0
20260906071804 73 209 2.6 8.7 0.00 0.00 0.00 61 1015.9
20260906071604 73 213 2.6 8.7 0.00 0.00 0.00 61 1015.9
20260906071425 73 215 1.7 10.4 0.00 0.00 0.00 61 1015.9
20260906071225 73 215 3.5 10.4 0.00 0.00 0.00 61 1015.9
20260906071004 73 216 6.1 10.4 0.00 0.00 0.00 62 1015.7
20260906070804 73 215 6.1 10.4 0.00 0.00 0.00 62 1015.8
20260906070604 73 213 6.1 10.4 0.00 0.00 0.00 62 1015.8
20260906070404 73 212 5.2 7.8 0.00 0.00 0.00 62 1015.8
20260906070204 73 208 2.6 5.2 0.00 0.00 0.00 62 1015.8
20260906070004 73 201 1.7 2.6 0.00 0.00 0.00 62 1015.9
20260906065804 73 206 0.9 3.5 0.00 0.00 0.00 61 1015.9
20260906065604 73 211 0.9 3.5 0.00 0.00 0.00 61 1015.8
20260906065404 73 214 0.9 3.5 0.00 0.00 0.00 61 1015.9
20260906065204 74 216 0.9 4.3 0.00 0.00 0.00 61 1015.9
20260906065004 74 217 2.6 4.3 0.00 0.00 0.00 61 1015.9
20260906064804 74 217 2.6 4.3 0.00 0.00 0.00 61 1015.9
20260906064604 74 218 2.6 4.3 0.00 0.00 0.00 61 1015.8
20260906064404 74 219 2.6 4.3 0.00 0.00 0.00 61 1015.9
20260906064204 74 221 2.6 4.3 0.00 0.00 0.00 60 1015.9
20260906064004 74 221 2.6 4.3 0.00 0.00 0.00 60 1015.8
20260906063804 74 223 2.6 5.2 0.00 0.00 0.00 60 1015.7
20260906063604 74 223 3.5 6.1 0.00 0.00 0.00 60 1015.7
20260906063404 74 224 2.6 6.1 0.00 0.00 0.00 60 1015.8
20260906063204 74 224 2.6 6.1 0.00 0.00 0.00 60 1015.7
20260906063004 75 226 3.5 7.8 0.00 0.00 0.00 59 1015.7
20260906062825 75 227 4.3 7.8 0.00 0.00 0.00 59 1015.6
20260906062604 75 228 4.3 7.8 0.00 0.00 0.00 59 1015.5
20260906062404 75 228 4.3 7.8 0.00 0.00 0.00 59 1015.5
20260906062225 75 229 5.2 7.8 0.00 0.00 0.00 59 1015.4
20260906062004 75 230 6.1 8.7 0.00 0.00 0.00 59 1015.4
20260906061825 75 231 6.1 8.7 0.00 0.00 0.00 59 1015.3
20260906061604 75 233 6.1 8.7 0.00 0.00 0.00 59 1015.3
20260906061404 75 236 6.1 8.7 0.00 0.00 0.00 59 1015.3
20260906061204 75 241 6.1 8.7 0.00 0.00 0.00 59 1015.3
20260906061004 75 245 5.2 8.7 0.00 0.00 0.00 59 1015.2
20260906060804 75 247 5.2 8.7 0.00 0.00 0.00 58 1015.2
20260906060604 75 248 6.1 8.7 0.00 0.00 0.00 58 1015.2
20260906060404 75 248 5.2 8.7 0.00 0.00 0.00 58 1015.2
20260906060225 75 247 4.3 8.7 0.00 0.00 0.00 58 1015.2
20260906060004 75 243 5.2 8.7 0.00 0.00 0.00 57 1015.1
20260906055804 75 241 5.2 8.7 0.00 0.00 0.00 57 1015.2
20260906055604 75 238 6.1 8.7 0.00 0.00 0.00 57 1015.2
20260906055404 76 236 5.2 7.8 0.00 0.00 0.00 56 1015.2
20260906055204 76 233 5.2 8.7 0.00 0.00 0.00 56 1015.4
20260906055004 76 231 6.1 8.7 0.00 0.00 0.00 56 1015.5
20260906054825 76 230 5.2 8.7 0.00 0.00 0.00 56 1015.5
20260906054604 76 228 5.2 8.7 0.00 0.00 0.00 55 1015.6
20260906054404 76 226 5.2 10.4 0.00 0.00 0.00 55 1015.6
20260906054204 76 225 6.1 10.4 0.00 0.00 0.00 54 1015.6
20260906054004 76 223 5.2 10.4 0.00 0.00 0.00 54 1015.7
20260906053806 76 221 5.2 10.4 0.00 0.00 0.00 54 1015.7
20260906053625 77 220 7.0 10.4 0.00 0.00 0.00 55 1015.7
20260906053404 77 216 4.3 8.7 0.00 0.00 0.00 55 1015.8
20260906053204 77 214 5.2 8.7 0.00 0.00 0.00 54 1015.9
20260906053004 77 213 4.3 8.7 0.00 0.00 0.00 55 1015.9
20260906052804 77 212 5.2 8.7 0.00 0.00 0.00 54 1016.0
20260906052604 76 210 6.1 8.7 0.00 0.00 0.00 54 1016.0
20260906052425 76 211 5.2 8.7 0.00 0.00 0.00 54 1016.1
20260906052204 76 211 5.2 7.8 0.00 0.00 0.00 55 1016.0
20260906052004 76 210 3.5 7.8 0.00 0.00 0.00 55 1016.1
20260906051804 76 211 4.3 8.7 0.00 0.00 0.00 55 1016.1
20260906051604 76 214 4.3 10.4 0.00 0.00 0.00 55 1016.2
20260906051404 75 215 3.5 10.4 0.00 0.00 0.00 54 1016.2
20260906051204 75 216 3.5 10.4 0.00 0.00 0.00 53 1016.1
20260906051004 75 216 5.2 10.4 0.00 0.00 0.00 52 1016.2
20260906050804 75 216 6.1 10.4 0.00 0.00 0.00 52 1016.1
20260906050604 75 216 5.2 7.8 0.00 0.00 0.00 52 1016.1
20260906050404 75 216 5.2 7.8 0.00 0.00 0.00 51 1016.1
20260906050204 75 215 5.2 7.8 0.00 0.00 0.00 51 1016.1
20260906050004 75 215 5.2 7.0 0.00 0.00 0.00 51 1016.1
20260906045804 75 216 4.3 7.0 0.00 0.00 0.00 51 1016.1
20260906045604 76 214 4.3 7.0 0.00 0.00 0.00 50 1016.1
20260906045404 76 213 5.2 7.0 0.00 0.00 0.00 51 1016.1
20260906045204 76 214 4.3 7.0 0.00 0.00 0.00 50 1016.1
20260906045025 76 214 4.3 7.0 0.00 0.00 0.00 50 1016.1
20260906044804 76 214 4.3 7.0 0.00 0.00 0.00 49 1016.1
20260906044604 76 216 3.5 8.7 0.00 0.00 0.00 50 1016.1
20260906044425 76 217 3.5 8.7 0.00 0.00 0.00 49 1016.2
20260906044204 76 218 5.2 8.7 0.00 0.00 0.00 49 1016.2
20260906044004 76 219 5.2 8.7 0.00 0.00 0.00 49 1016.2
20260906043804 76 219 6.1 8.7 0.00 0.00 0.00 49 1016.3
20260906043604 76 219 7.0 11.3 0.00 0.00 0.00 48 1016.2
20260906043404 77 217 6.1 11.3 0.00 0.00 0.00 48 1016.2
20260906043204 77 215 5.2 11.3 0.00 0.00 0.00 48 1016.2
20260906043004 77 213 5.2 11.3 0.00 0.00 0.00 48 1016.2
20260906042804 77 212 6.1 11.3 0.00 0.00 0.00 48 1016.2
20260906042604 76 213 4.3 11.3 0.00 0.00 0.00 48 1016.2
20260906042404 76 216 4.3 11.3 0.00 0.00 0.00 48 1016.2
20260906042225 76 217 3.5 11.3 0.00 0.00 0.00 49 1016.2
20260906042004 76 218 7.0 11.3 0.00 0.00 0.00 48 1016.1
20260906041804 76 220 7.0 11.3 0.00 0.00 0.00 48 1016.0
20260906041604 76 221 5.2 7.8 0.00 0.00 0.00 48 1015.9
20260906041404 77 221 5.2 6.1 0.00 0.00 0.00 49 1015.8
20260906041204 77 222 4.3 6.1 0.00 0.00 0.00 49 1015.8
20260906041025 77 223 4.3 6.1 0.00 0.00 0.00 49 1015.9
20260906040804 77 224 4.3 6.1 0.00 0.00 0.00 49 1015.9
20260906040604 77 224 5.2 6.1 0.00 0.00 0.00 49 1015.9
20260906040404 77 225 4.3 6.1 0.00 0.00 0.00 48 1015.9
20260906040204 77 225 4.3 7.0 0.00 0.00 0.00 49 1015.9
20260906040004 77 226 4.3 7.0 0.00 0.00 0.00 49 1016.0
20260906035827 77 226 4.3 7.8 0.00 0.00 0.00 49 1015.9
20260906035604 77 227 5.2 7.8 0.00 0.00 0.00 49 1016.0
20260906035404 77 227 5.2 7.8 0.00 0.00 0.00 49 1015.9
20260906035204 77 228 6.1 7.8 0.00 0.00 0.00 49 1016.1
20260906035004 77 229 6.1 8.7 0.00 0.00 0.00 49 1016.1
20260906034804 77 229 6.1 8.7 0.00 0.00 0.00 49 1016.1
20260906034625 77 230 6.1 8.7 0.00 0.00 0.00 49 1016.1
20260906034404 77 230 7.0 8.7 0.00 0.00 0.00 49 1016.2
20260906034225 77 230 7.0 8.7 0.00 0.00 0.00 48 1016.1
20260906034025 77 230 6.1 7.8 0.00 0.00 0.00 48 1016.1
20260906033804 76 228 6.1 7.8 0.00 0.00 0.00 49 1016.1
20260906033604 76 227 6.1 8.7 0.00 0.00 0.00 49 1016.1
20260906033404 76 226 5.2 8.7 0.00 0.00 0.00 49 1016.1
20260906033225 76 225 5.2 8.7 0.00 0.00 0.00 50 1016.1
20260906033025 76 222 6.1 8.7 0.00 0.00 0.00 50 1016.2
20260906032804 76 221 7.0 8.7 0.00 0.00 0.00 49 1016.1
20260906032604 76 219 5.2 7.8 0.00 0.00 0.00 49 1016.1
20260906032404 76 219 5.2 7.0 0.00 0.00 0.00 49 1016.1
20260906032204 76 219 6.1 7.0 0.00 0.00 0.00 48 1016.2
20260906032004 76 220 5.2 7.0 0.00 0.00 0.00 48 1016.2
20260906031804 76 219 5.2 7.0 0.00 0.00 0.00 48 1016.2
20260906031604 76 219 5.2 7.8 0.00 0.00 0.00 48 1016.2
20260906031404 76 219 4.3 7.8 0.00 0.00 0.00 48 1016.2
20260906031204 76 218 4.3 7.8 0.00 0.00 0.00 48 1016.2
20260906031004 76 219 4.3 7.8 0.00 0.00 0.00 48 1016.1
20260906030804 76 219 5.2 7.8 0.00 0.00 0.00 48 1016.1
20260906030604 76 219 6.1 8.7 0.00 0.00 0.00 48 1016.0
20260906030404 76 218 6.1 8.7 0.00 0.00 0.00 48 1016.0
20260906030204 76 218 6.1 8.7 0.00 0.00 0.00 48 1016.0
20260906030004 76 218 6.1 8.7 0.00 0.00 0.00 48 1016.1
20260906025804 76 219 6.1 8.7 0.00 0.00 0.00 47 1016.1
20260906025604 76 220 7.0 7.8 0.00 0.00 0.00 47 1016.0
20260906025404 76 223 5.2 7.8 0.00 0.00 0.00 47 1016.1
20260906025204 76 224 5.2 7.8 0.00 0.00 0.00 47 1015.9
20260906025025 76 224 4.3 7.0 0.00 0.00 0.00 47 1016.0
20260906024804 77 223 5.2 7.8 0.00 0.00 0.00 47 1015.9
20260906024604 77 224 5.2 7.8 0.00 0.00 0.00 47 1015.9
20260906024425 77 224 5.2 7.8 0.00 0.00 0.00 47 1015.9
20260906024204 77 224 5.2 8.7 0.00 0.00 0.00 47 1015.9
20260906024004 77 225 5.2 8.7 0.00 0.00 0.00 46 1015.9
20260906023804 77 226 6.1 8.7 0.00 0.00 0.00 46 1015.8
20260906023604 77 227 7.0 8.7 0.00 0.00 0.00 46 1015.8
20260906023426 77 227 7.0 8.7 0.00 0.00 0.00 46 1015.8
20260906023204 77 227 6.1 7.8 0.00 0.00 0.00 46 1015.7
20260906023004 77 227 6.1 7.8 0.00 0.00 0.00 46 1015.7
20260906022804 77 227 6.1 7.8 0.00 0.00 0.00 46 1015.7
20260906022604 77 228 6.1 7.8 0.00 0.00 0.00 46 1015.7
20260906022404 77 228 5.2 8.7 0.00 0.00 0.00 46 1015.7
20260906022204 78 229 5.2 8.7 0.00 0.00 0.00 46 1015.6
20260906022025 78 229 6.1 8.7 0.00 0.00 0.00 45 1015.6
20260906021827 78 229 6.1 8.7 0.00 0.00 0.00 45 1015.7
20260906021604 78 229 6.1 8.7 0.00 0.00 0.00 45 1015.6
20260906021404 78 229 6.1 7.8 0.00 0.00 0.00 45 1015.6
20260906021204 78 229 5.2 7.8 0.00 0.00 0.00 46 1015.6
20260906021025 78 229 6.1 7.8 0.00 0.00 0.00 46 1015.5
20260906020804 78 228 6.1 7.8 0.00 0.00 0.00 46 1015.5
20260906020604 78 227 6.1 7.8 0.00 0.00 0.00 46 1015.6
20260906020404 78 226 7.0 7.8 0.00 0.00 0.00 46 1015.5
20260906020204 78 224 6.1 7.8 0.00 0.00 0.00 48 1015.5
20260906020026 78 224 5.2 7.8 0.00 0.00 0.00 48 1015.6
20260906015804 78 222 4.3 6.1 0.00 0.00 0.00 49 1015.6
20260906015604 78 220 4.3 5.2 0.00 0.00 0.00 49 1015.5
20260906015404 79 220 3.5 5.2 0.00 0.00 0.00 49 1015.5
20260906015225 79 221 3.5 5.2 0.00 0.00 0.00 49 1015.5
20260906015025 79 220 3.5 5.2 0.00 0.00 0.00 49 1015.4
20260906014804 79 213 3.5 5.2 0.00 0.00 0.00 49 1015.4
20260906014604 79 204 3.5 6.1 0.00 0.00 0.00 49 1015.4
20260906014404 79 194 3.5 7.0 0.00 0.00 0.00 50 1015.3
20260906014204 79 182 2.6 7.8 0.00 0.00 0.00 50 1015.3
20260906014004 79 178 2.6 7.8 0.00 0.00 0.00 50 1015.3
20260906013804 79 176 3.5 7.8 0.00 0.00 0.00 50 1015.3
20260906013604 79 175 3.5 7.8 0.00 0.00 0.00 50 1015.4
20260906013404 79 172 4.3 7.8 0.00 0.00 0.00 50 1015.3
20260906013204 79 170 4.3 7.8 0.00 0.00 0.00 50 1015.3
20260906013004 79 168 4.3 7.8 0.00 0.00 0.00 50 1015.3
20260906012804 79 167 6.1 8.7 0.00 0.00 0.00 50 1015.3
20260906012604 79 165 6.1 8.7 0.00 0.00 0.00 50 1015.4
20260906012404 79 164 6.1 8.7 0.00 0.00 0.00 50 1015.2
20260906012204 79 165 6.1 8.7 0.00 0.00 0.00 50 1015.3
20260906012004 79 167 6.1 8.7 0.00 0.00 0.00 50 1015.3
20260906011825 79 166 5.2 10.4 0.00 0.00 0.00 51 1015.3
20260906011604 80 170 5.2 10.4 0.00 0.00 0.00 51 1015.3
20260906011404 80 175 5.2 10.4 0.00 0.00 0.00 50 1015.4
20260906011204 80 180 3.5 10.4 0.00 0.00 0.00 50 1015.4
20260906011004 80 175 5.2 10.4 0.00 0.00 0.00 50 1015.4
20260906010804 80 176 4.3 10.4 0.00 0.00 0.00 49 1015.4
20260906010604 80 174 3.5 10.4 0.00 0.00 0.00 50 1015.5
20260906010404 80 168 4.3 11.3 0.00 0.00 0.00 50 1015.5
20260906010204 80 159 7.0 12.2 0.00 0.00 0.00 49 1015.6
20260906010004 80 154 7.0 13.0 0.00 0.00 0.00 49 1015.5
20260906005804 80 147 5.2 14.8 0.00 0.00 0.00 49 1015.5
20260906005604 80 143 7.0 14.8 0.00 0.00 0.00 49 1015.6
20260906005404 81 141 8.7 14.8 0.00 0.00 0.00 48 1015.5
20260906005204 81 138 7.0 14.8 0.00 0.00 0.00 48 1015.6
20260906005004 81 138 8.7 14.8 0.00 0.00 0.00 48 1015.6
20260906004804 81 136 9.6 17.4 0.00 0.00 0.00 48 1015.6
20260906004604 81 131 10.4 17.4 0.00 0.00 0.00 47 1015.6
20260906004404 81 127 8.7 17.4 0.00 0.00 0.00 47 1015.6
20260906004204 81 124 7.0 17.4 0.00 0.00 0.00 47 1015.6
20260906004004 81 123 10.4 17.4 0.00 0.00 0.00 46 1015.6
20260906003806 81 120 6.1 15.6 0.00 0.00 0.00 46 1015.6
20260906003604 81 118 7.0 15.6 0.00 0.00 0.00 45 1015.5
20260906003425 82 117 6.1 15.6 0.00 0.00 0.00 44 1015.6
20260906003204 82 116 6.1 15.6 0.00 0.00 0.00 43 1015.6
20260906003004 82 119 8.7 18.2 0.00 0.00 0.00 42 1015.6
20260906002804 82 124 7.8 20.9 0.00 0.00 0.00 42 1015.6
20260906002604 82 131 8.7 20.9 0.00 0.00 0.00 41 1015.6
20260906002404 83 136 10.4 20.9 0.00 0.00 0.00 40 1015.7
20260906002225 83 138 11.3 20.9 0.00 0.00 0.00 40 1015.7
20260906002004 83 140 14.8 20.9 0.00 0.00 0.00 39 1015.7
20260906001804 83 141 15.6 20.9 0.00 0.00 0.00 38 1015.8
20260906001604 83 141 14.8 19.1 0.00 0.00 0.00 37 1015.9
20260906001425 83 141 10.4 17.4 0.00 0.00 0.00 37 1015.9
20260906001204 84 145 9.6 16.5 0.00 0.00 0.00 37 1015.8
20260906001004 84 148 9.6 19.1 0.00 0.00 0.00 37 1015.9
20260906000804 84 147 11.3 19.1 0.00 0.00 0.00 37 1016.0
20260906000604 84 143 9.6 19.1 0.00 0.00 0.00 37 1015.8
20260906000404 85 138 10.4 19.1 0.00 0.00 0.00 36 1015.9
20260906000204 85 132 12.2 19.1 0.00 0.00 0.00 35 1015.9
20260906000025 85 126 11.3 19.1 0.00 0.00 0.00 33 1016.1
20260905235804 86 116 7.0 13.9 0.00 0.00 0.00 31 1016.0
20260905235604 86 117 6.1 12.2 0.00 0.00 0.00 31 1015.8
20260905235404 86 118 7.0 12.2 0.00 0.00 0.00 31 1015.7
20260905235204 86 115 6.1 12.2 0.00 0.00 0.00 31 1015.7
20260905235004 86 113 5.2 12.2 0.00 0.00 0.00 30 1015.6
20260905234804 86 114 7.0 12.2 0.00 0.00 0.00 30 1015.6
20260905234604 86 112 6.1 12.2 0.00 0.00 0.00 31 1015.5
20260905234404 86 109 7.0 12.2 0.00 0.00 0.00 31 1015.5
20260905234204 86 106 6.1 12.2 0.00 0.00 0.00 32 1015.5
20260905234004 87 101 7.0 12.2 0.00 0.00 0.00 31 1015.4
20260905233825 87 101 6.1 12.2 0.00 0.00 0.00 31 1015.3
20260905233604 87 100 6.1 12.2 0.00 0.00 0.00 30 1015.3
20260905233425 87 98 4.3 8.7 0.00 0.00 0.00 30 1015.2
20260905233204 87 100 5.2 10.4 0.00 0.00 0.00 30 1015.1
20260905233004 87 104 4.3 10.4 0.00 0.00 0.00 30 1015.2
20260905232804 87 100 5.2 11.3 0.00 0.00 0.00 30 1015.1
20260905232625 87 98 5.2 13.0 0.00 0.00 0.00 29 1015.1
20260905232404 87 103 6.1 13.0 0.00 0.00 0.00 29 1015.1
20260905232204 87 105 5.2 13.0 0.00 0.00 0.00 29 1015.1
20260905232004 87 105 7.0 13.0 0.00 0.00 0.00 29 1015.1
20260905231804 87 113 7.0 13.0 0.00 0.00 0.00 30 1015.1
20260905231604 87 120 5.2 12.2 0.00 0.00 0.00 31 1015.1
20260905231404 87 121 6.1 12.2 0.00 0.00 0.00 30 1015.1
20260905231204 87 121 5.2 12.2 0.00 0.00 0.00 30 1015.1
20260905231004 87 121 7.0 12.2 0.00 0.00 0.00 32 1015.1
20260905230804 87 116 7.8 12.2 0.00 0.00 0.00 32 1015.2
20260905230625 86 111 6.1 12.2 0.00 0.00 0.00 33 1015.1
20260905230404 86 107 4.3 12.2 0.00 0.00 0.00 34 1015.0
20260905230204 86 104 7.0 12.2 0.00 0.00 0.00 33 1015.1
20260905230004 86 102 7.0 13.9 0.00 0.00 0.00 32 1015.1
20260905225804 86 101 4.3 13.9 0.00 0.00 0.00 31 1015.1
20260905225606 86 101 7.0 13.9 0.00 0.00 0.00 30 1015.1
20260905225425 86 101 7.0 13.9 0.00 0.00 0.00 30 1015.1
20260905225204 87 105 7.8 13.9 0.00 0.00 0.00 30 1015.1
20260905225004 87 104 6.1 12.2 0.00 0.00 0.00 30 1015.0
20260905224825 87 104 3.5 10.4 0.00 0.00 0.00 32 1015.0
20260905224604 87 103 4.3 10.4 0.00 0.00 0.00 32 1014.9
20260905224404 87 104 5.2 11.3 0.00 0.00 0.00 32 1014.9
20260905224204 87 103 5.2 12.2 0.00 0.00 0.00 32 1014.9
20260905224004 87 105 6.1 12.2 0.00 0.00 0.00 31 1015.0
20260905223825 88 106 5.2 12.2 0.00 0.00 0.00 31 1015.0
20260905223604 88 107 7.0 13.0 0.00 0.00 0.00 31 1014.9
20260905223404 87 107 6.1 13.0 0.00 0.00 0.00 30 1014.9
20260905223204 87 107 6.1 13.0 0.00 0.00 0.00 31 1015.0
20260905223004 87 107 5.2 13.0 0.00 0.00 0.00 32 1014.9
20260905222804 87 108 7.0 13.0 0.00 0.00 0.00 32 1014.8
20260905222604 87 109 6.1 10.4 0.00 0.00 0.00 31 1014.9
20260905222404 87 109 4.3 11.3 0.00 0.00 0.00 32 1014.9
20260905222204 87 113 4.3 11.3 0.00 0.00 0.00 33 1014.9
20260905222004 87 112 4.3 13.9 0.00 0.00 0.00 33 1014.8
20260905221804 87 110 5.2 13.9 0.00 0.00 0.00 33 1014.8
20260905221604 87 108 6.1 13.9 0.00 0.00 0.00 32 1014.7
20260905221404 88 108 6.1 13.9 0.00 0.00 0.00 30 1014.8
20260905221204 89 104 7.8 13.9 0.00 0.00 0.00 28 1014.7
20260905221025 89 101 7.0 13.9 0.00 0.00 0.00 29 1014.7
20260905220804 89 96 5.2 13.9 0.00 0.00 0.00 29 1014.8
20260905220625 89 96 4.3 14.8 0.00 0.00 0.00 29 1014.8
20260905220404 89 95 7.0 14.8 0.00 0.00 0.00 28 1014.8
20260905220204 89 96 7.8 16.5 0.00 0.00 0.00 29 1014.8
20260905220004 88 99 9.6 16.5 0.00 0.00 0.00 29 1014.8
20260905215825 89 102 8.7 16.5 0.00 0.00 0.00 28 1014.8
20260905215604 90 102 8.7 16.5 0.00 0.00 0.00 28 1014.7
20260905215404 90 102 7.8 16.5 0.00 0.00 0.00 29 1014.7
20260905215204 90 98 10.4 16.5 0.00 0.00 0.00 29 1014.7
20260905215004 90 97 10.4 16.5 0.00 0.00 0.00 28 1014.7
20260905214804 90 97 7.8 16.5 0.00 0.00 0.00 28 1014.8
20260905214604 89 102 7.0 17.4 0.00 0.00 0.00 30 1014.8
20260905214404 88 106 7.8 17.4 0.00 0.00 0.00 31 1014.9
20260905214204 89 111 7.8 17.4 0.00 0.00 0.00 31 1015.0
20260905214004 89 112 7.8 17.4 0.00 0.00 0.00 30 1015.1
20260905213804 90 109 10.4 17.4 0.00 0.00 0.00 29 1015.0
20260905213604 90 107 9.6 17.4 0.00 0.00 0.00 29 1015.0
20260905213404 90 104 10.4 17.4 0.00 0.00 0.00 30 1015.0
20260905213204 89 99 7.0 16.5 0.00 0.00 0.00 29 1015.1
20260905213004 89 98 7.8 11.3 0.00 0.00 0.00 29 1015.1
20260905212804 89 99 6.1 8.7 0.00 0.00 0.00 29 1015.1
20260905212604 89 96 5.2 8.7 0.00 0.00 0.00 29 1015.1
20260905212404 89 91 7.0 8.7 0.00 0.00 0.00 29 1015.2
20260905212204 89 86 3.5 5.2 0.00 0.00 0.00 29 1015.2
20260905212004 89 80 3.5 5.2 0.00 0.00 0.00 29 1015.2
20260905211804 89 67 2.6 5.2 0.00 0.00 0.00 30 1015.3
20260905211604 89 59 2.6 5.2 0.00 0.00 0.00 29 1015.1